{"data":{"norad_id":66025,"intl_designator":"2025-232W","name":"STARLINK-35280","alt_names":[],"object_type":"PAYLOAD","status":"ACTIVE","operator":null,"country":"US","launch_date":"2025-10-16","launch_site_code":"AFETR","launch_vehicle":null,"mission":null,"orbit_class":"UNKNOWN","rcs_meters":null,"size_class":null,"mass_kg":null,"dimensions":null,"purposes":["comms"],"wikipedia_slug":null,"has_3d_model":false,"image_url":null,"decayed_at":null,"tle_current":{"epoch":"2026-09-19T18:02:34.400256Z","epoch_age_seconds":167713,"freshness":"FRESH","line1":"1 66025U 25232W   26262.75178704  .00011868  00000+0  36189-3 0  9993","line2":"2 66025  53.1590 281.3510 0001126  89.1897 270.9234 15.34393914 53160","mean_motion":15.34393914,"eccentricity":0.0001126,"inclination_deg":53.159,"raan_deg":281.351,"arg_perigee_deg":89.1897,"mean_anomaly_deg":270.9234,"bstar":0.00036189,"rev_number":5316,"period_min":93.848130317858,"perigee_km":461.9510484936,"apogee_km":463.49160978932,"semimajor_km":6840.8583291415,"source":"CELESTRAK","updated_at":"2026-09-21T09:00:35.772393Z"}}}